Content
SEND FEEDBACK

Daily
Averages
Monthly
Summary
United States of America

OTTO, WYOMING


Home > North America > United States > Wyoming
Elevation: 3794 feet     Latitude: 44 30N     Longitude: 108 03W

WEATHER
 
SELECT A DAY
Number of Records: 146,510;   Date Range: 9/17/98 - 9/22/14
 
SHARE

PRINT THIS DATA

[ ← Previous Day ]
WEATHER ALMANAC - FEBRUARY 5, 2013
[ Next Day → ]
[ °C ]   °F
Weather ElementAverageHighLow
Temperature15.4 °F32 °F (3:53 pm)1.9 °F (4:53 am)
Dewpoint10.9 °F21.9 °F (2:53 pm)-0.9 °F (4:53 am)
Humidity83 %92 % (2:53 am)64 % (3:53 pm)
Barometer30.06 in30.17 in (8:53 am)29.96 in (11:53 pm)
Wind Speed3.4 mph8.1 mph (2:53 am)
Weather ElementAverage
Visibility9.4 mi
Wind DirectionSSE (163 °)

Weather ElementTotal
Precipitation---
Heating Degree Days48.1 (Base 65)
Averaged from 23 records on February 5, 2013
WEATHER CONDITIONS BREAKOUT
WIND DIRECTION BREAKOUT
WEATHER BY HOUR - FEBRUARY 5, 2013
[ °C ]   °F
Local TimeTemperatureDewpointHumidityBarometerVisibilityWind DirectionWind SpeedGust SpeedPrecipitationEventsConditions
1:53 AM9.0 °F6.1 °F88 %30.12 in9.0 miSSW (200°)4.6 mphClear
2:53 AM9.0 °F7.0 °F92 %30.14 in7.0 miWest (260°)8.1 mphClear
3:53 AM6.1 °F3.0 °F87 %30.12 in7.0 miCalmClear
4:53 AM1.9 °F-0.9 °F88 %30.14 in10.0 miWSW (250°)3.5 mphClear
5:53 AM7.0 °F3.9 °F87 %30.15 in10.0 miSW (230°)3.5 mphClear
6:53 AM7.0 °F3.0 °F84 %30.16 in10.0 miSE (140°)3.5 mphClear
7:53 AM10.0 °F7.0 °F87 %30.16 in7.0 miSSE (150°)5.8 mphMostly Cloudy
8:53 AM10.0 °F8.1 °F92 %30.17 in9.0 miCalmOvercast
9:53 AM14.0 °F10.9 °F88 %30.14 in8.0 miWest (260°)3.5 mphMostly Cloudy
10:53 AM18.0 °F14.0 °F84 %30.12 in10.0 miCalmOvercast
11:53 AM23.0 °F15.1 °F72 %30.09 in10.0 miCalmScattered Clouds
12:53 PM25.0 °F17.1 °F72 %30.06 in10.0 miEast (100°)3.5 mphClear
1:53 PM28.0 °F19.9 °F72 %30.01 in10.0 miEast (100°)5.8 mphClear
2:53 PM30.9 °F21.9 °F69 %29.98 in10.0 miESE (110°)5.8 mphClear
3:53 PM32.0 °F21.0 °F64 %29.97 in10.0 miCalmClear
4:53 PM27.0 °F19.9 °F75 %29.99 in10.0 miCalmClear
5:53 PM21.0 °F16.0 °F81 %29.99 in10.0 miNW (310°)5.8 mphClear
6:53 PM19.0 °F15.1 °F85 %29.99 in10.0 miNW (310°)3.5 mphClear
7:53 PM14.0 °F10.0 °F84 %29.99 in10.0 miWest (280°)3.5 mphClear
8:53 PM12.0 °F10.0 °F92 %29.99 in10.0 miNW (320°)3.5 mphClear
9:53 PM10.9 °F9.0 °F92 %29.97 in10.0 miSSE (160°)3.5 mphClear
10:53 PM10.0 °F7.0 °F87 %29.97 in10.0 miWNW (290°)3.5 mphClear
11:53 PM9.0 °F6.1 °F88 %29.96 in10.0 miWest (280°)6.9 mphClear
Hourly data recorded from KGEY, located miles away from Otto, Wyoming







STORIES FROM OUR PARTNERS